Погода в Николаевке

Украина / Днепропетровская область     48°23′08″N   36°19′01″E
темп.,
°C
ветер,
м/с
пор.,
м/с
влажн.,
%
обл.,
%
осадки,
мм/ч
давл.,
гПа
погр.,
м
9 мая, вс
вс900:00+7ссз71185100 5.3 1012933
03:00+6сз61283100 5.4 1014919
06:00+5сз71285100 0.0 1015821
09:00+6ссз71168100 0.0 10181134
12:00+12сз9114644 0.0 10182027
15:00+13ссз91139100 0.0 10192620
18:00+12ссз7105170 0.1 10212002
21:00+7сз48674 0.1 1024154
10 мая, пн
пн1000:00+5сз410765 0.0 1024201
03:00+4ссз410800 0.0 1026205
06:00+4сз411793 0.0 1025288
09:00+11ссз610545 0.0 10251175
12:00+14ссз9114017 0.0 10232297
15:00+15ссз9113993 0.0 10222528
18:00+13ссз8125196 0.0 10211788
21:00+11ссз81458100 0.0 1019812
11 мая, вт
вт1100:00+10ссз101763100 0.1 1016976
03:00+8с91790100 1.8 1014678
06:00+10с81589100 0.2 1014806
09:00+11ссв61091100 0.3 10141051
12:00+11св81067100 0.1 10151454
15:00+11св71065100 0.3 10151548
18:00+9ссв81279100 0.4 10151437
21:00+7св81285100 0.7 10141203
12 мая, ср
ср1200:00+7в81190100 0.4 10141119
03:00+7вюв71092100 1.9 10141136
06:00+8вюв7119192 1.1 1014531
09:00+10юв71081100 2.3 10141018
12:00+14ю71159100 1.4 10141997
15:00+12ююв9128496 2.8 1016962
18:00+12юв8118023 0.7 1016833
21:00+9вюв4109071 0.7 1016198
13 мая, чт
чт1300:00+9вюв378890 0.0 1016137
03:00+8вюв34915 0.0 101655
06:00+9вюв3694100 0.0 1016127
09:00+16вюв5869100 0.0 1015518
12:00+21юв785232 0.0 10141318
15:00+22юв784713 0.0 10131481
18:00+21юв6959100 0.0 1013685
21:00+16вюв4118495 0.0 1013206